Hyannis, MA

9:29 PM EDT on April 28, 2017 (GMT -0400)
Barnstable Municipal-Boardman-Polando Field

Weather History for KHYA - May, 2014

Change the Weather History Date:

Sunday, May 25, 2014

  Actual Average Record
Temperature  
Mean Temperature 56 °F -  
Max Temperature 61 °F 66 °F 89 °F (2007)
Min Temperature 52 °F 49 °F 27 °F (1956)
Degree Days  
Heating Degree Days 8    
Growing Degree Days 6 (Base 50)    
Moisture  
Dew Point 48 °F    
Average Humidity 76    
Maximum Humidity 90    
Minimum Humidity 62    
Precipitation  
Precipitation 0.00 in - - ()
Sea Level Pressure  
Sea Level Pressure 30.06 in    
Wind  
Wind Speed 4 mph (South)    
Max Wind Speed 10 mph    
Max Gust Speed -    
Visibility 10 miles    
Events      
Averages and records for this station are not official NWS values.
T = Trace of Precipitation, MM = Missing Value Source: NWS Daily Summary

Daily Weather History Graph

Daily Weather History Graph

Search for Another Location

Airport or City:

Trip Planner

Search our weather history database for the weather conditions in past years. The results will help you decide how hot, cold, wet, or windy it might be!

Date:

Astronomy

May. 25, 2014 Rise Set
Actual Time 5:13 AM EDT 8:03 PM EDT
Civil Twilight 4:40 AM EDT 8:36 PM EDT
Nautical Twilight 3:59 AM EDT 9:17 PM EDT
Astronomical Twilight 3:11 AM EDT 10:05 PM EDT
Moon 3:18 AM EDT (5/25) 4:58 PM EDT (5/25)
Length of Visible Light 15h 55m
Length of Day
14h 50m
Waning Crescent, 10% of the Moon is Illuminated
May 25
Waning Crescent
May 28
New
Jun 5
First Quarter
Jun 13
Full
Jun 19
Last Quarter

Hourly Weather History & Observations

Time (EDT) Temp. Dew Point Humidity Pressure Visibility Wind Dir Wind Speed Gust Speed Precip Events Conditions
12:56 AM 53.1 °F 48.9 °F 86% 30.04 in 10.0 mi NE 4.6 mph - N/A   Overcast
1:56 AM 53.1 °F 48.9 °F 86% 30.04 in 10.0 mi Calm Calm - N/A   Overcast
2:10 AM 53.1 °F 48.0 °F 83% 30.03 in 10.0 mi Calm Calm - N/A   Mostly Cloudy
2:18 AM 52.0 °F 46.9 °F 83% 30.03 in 10.0 mi ESE 3.5 mph - N/A   Mostly Cloudy
2:36 AM 53.1 °F 46.9 °F 80% 30.03 in 10.0 mi Calm Calm - N/A   Overcast
2:46 AM 53.1 °F 46.9 °F 80% 30.03 in 10.0 mi Calm Calm - N/A   Overcast
2:56 AM 53.1 °F 46.9 °F 80% 30.03 in 10.0 mi East 3.5 mph - N/A   Overcast
3:31 AM 53.1 °F 46.9 °F 80% 30.02 in 10.0 mi SE 3.5 mph - N/A   Overcast
3:56 AM 53.1 °F 46.0 °F 77% 30.03 in 10.0 mi Calm Calm - N/A   Overcast
4:56 AM 54.0 °F 46.0 °F 75% 30.04 in 10.0 mi Calm Calm - N/A   Overcast
5:56 AM 54.0 °F 46.0 °F 75% 30.05 in 10.0 mi Calm Calm - N/A   Overcast
6:56 AM 55.0 °F 46.0 °F 72% 30.05 in 10.0 mi SE 4.6 mph - N/A   Overcast
7:56 AM 55.9 °F 46.0 °F 69% 30.07 in 10.0 mi SE 5.8 mph - N/A   Overcast
8:56 AM 57.9 °F 46.0 °F 65% 30.08 in 10.0 mi SE 5.8 mph - N/A   Overcast
9:56 AM 57.9 °F 46.0 °F 65% 30.09 in 10.0 mi South 6.9 mph - N/A   Overcast
11:32 AM 59.0 °F 46.0 °F 62% 30.09 in 10.0 mi SE 6.9 mph - N/A   Scattered Clouds
11:56 AM 59.0 °F 46.0 °F 62% 30.09 in 10.0 mi South 8.1 mph - N/A   Clear
12:56 PM 59.0 °F 46.9 °F 64% 30.09 in 10.0 mi SSE 8.1 mph - N/A   Clear
1:56 PM 61.0 °F 48.0 °F 62% 30.09 in 10.0 mi SSE 8.1 mph - N/A   Clear
2:56 PM 61.0 °F 48.0 °F 62% 30.07 in 10.0 mi South 8.1 mph - N/A   Clear
3:56 PM 60.1 °F 48.9 °F 67% 30.06 in 10.0 mi SSW 10.4 mph - N/A   Clear
4:56 PM 61.0 °F 50.0 °F 67% 30.06 in 10.0 mi SSW 8.1 mph - N/A   Clear
5:56 PM 60.1 °F 50.0 °F 69% 30.05 in 10.0 mi SSW 9.2 mph - N/A   Clear
6:56 PM 57.9 °F 51.1 °F 78% 30.06 in 10.0 mi SSW 8.1 mph - N/A   Clear
7:56 PM 55.9 °F 50.0 °F 80% 30.06 in 10.0 mi SSW 8.1 mph - N/A   Clear
8:56 PM 55.0 °F 50.0 °F 83% 30.06 in 10.0 mi SSW 6.9 mph - N/A   Clear
9:56 PM 55.0 °F 51.1 °F 86% 30.07 in 10.0 mi SSW 6.9 mph - N/A   Clear
11:24 PM 55.9 °F 53.1 °F 90% 30.05 in 10.0 mi SSW 10.4 mph - N/A   Partly Cloudy
11:45 PM 55.9 °F 53.1 °F 90% 30.05 in 10.0 mi SSW 9.2 mph - N/A   Mostly Cloudy
11:56 PM 55.9 °F 53.1 °F 90% 30.05 in 10.0 mi SSW 10.4 mph - N/A   Mostly Cloudy